This demonstration page uses our WeatherBlox Daily Observations layout. Learn more.

Hourly Observations for March 20, 2020

Temp ( °F °C ) Dew Point ( °F °C ) Humidity (%) Winds ( mph kmh ) Pressure ( in mb ) Visibility ( mi km ) Precip ( " mm )
12:15 am 00:15 Mostly Cloudy 55 13 55 13 100 100 NE 3 6 30.13 1020 7 11.26538 0 0
12:35 am 00:35 Mostly Cloudy 54 12 54 12 100 100 NE 3 6 30.12 1020 5 8.0467 0 0
12:55 am 00:55 Cloudy 54 12 54 12 100 100 NE 3 6 30.12 1020 5 8.0467 0 0
1:15 am 01:15 Partly Cloudy 54 12 54 12 100 100 Calm 30.1 1019 5 8.0467 0 0
1:35 am 01:35 Clear 54 12 54 12 100 100 ENE 3 6 30.09 1019 5 8.0467 0 0
1:55 am 01:55 Clear 54 12 54 12 100 100 Calm 30.08 1019 4 6.43736 0 0
2:35 am 02:35 Clear 52 11 52 11 100 100 N 3 6 30.08 1019 3 4.82802 0 0
2:55 am 02:55 Clear 52 11 52 11 100 100 Calm 30.07 1018 3 4.82802 0 0
3:15 am 03:15 Partly Cloudy 52 11 52 11 100 100 Calm 30.06 1018 3 4.82802 0 0
3:35 am 03:35 Partly Cloudy 52 11 52 11 100 100 NNW 3 6 30.06 1018 3 4.82802 0 0
3:55 am 03:55 Mostly Cloudy 52 11 52 11 100 100 Calm 30.06 1018 3 4.82802 0 0
4:15 am 04:15 Cloudy 52 11 52 11 100 100 Calm 30.05 1018 4 6.43736 0 0
4:35 am 04:35 Cloudy 52 11 52 11 100 100 SSW 5 7 30.04 1017 4 6.43736 0 0
4:55 am 04:55 Cloudy 52 11 52 11 100 100 Calm 30.04 1017 3 4.82802 0 0
5:15 am 05:15 Mostly Cloudy 52 11 52 11 100 100 Calm 30.04 1017 3 4.82802 0 0
5:35 am 05:35 Cloudy 52 11 52 11 100 100 S 5 7 30.03 1017 4 6.43736 0 0
5:55 am 05:55 Cloudy 52 11 52 11 100 100 SSW 3 6 30.03 1017 4 6.43736 0 0
6:15 am 06:15 Cloudy 50 10 50 10 100 100 SSW 5 7 30.03 1017 4 6.43736 0 0
6:35 am 06:35 Partly Cloudy 52 11 52 11 100 100 SSW 5 7 30.02 1017 5 8.0467 0 0
6:55 am 06:55 Clear 52 11 52 11 100 100 S 3 6 30.02 1017 4 6.43736 0 0
7:15 am 07:15 Sunny 52 11 52 11 100 100 Calm 30.02 1017 4 6.43736 0 0
7:35 am 07:35 Sunny 50 10 50 10 100 100 Calm 30.03 1017 2.5 4.02335 0 0
7:55 am 07:55 Sunny 52 11 52 11 100 100 Calm 30.02 1017 4 6.43736 0 0
8:15 am 08:15 Sunny 52 11 52 11 100 100 SSW 5 7 30.02 1017 5 8.0467 0 0
8:35 am 08:35 Sunny 54 12 54 12 100 100 SW 3 6 30.02 1017 7 11.26538 0 0
8:55 am 08:55 Sunny 55 13 55 13 100 100 SW 6 9 30.01 1016 10 16.0934 0 0
9:15 am 09:15 Sunny 59 15 57 14 94 94 SSW 9 15 30.01 1016 10 16.0934 0 0
9:35 am 09:35 Sunny 63 17 59 15 88 88 SSW 13 20 30.01 1016 10 16.0934 0 0
9:55 am 09:55 Sunny 63 17 59 15 88 88 SSW 13 20 30.02 1016 10 16.0934 0 0
10:15 am 10:15 Sunny 64 18 59 15 83 83 SSW 13 20 30.01 1016 10 16.0934 0 0
10:35 am 10:35 Partly Cloudy 64 18 59 15 83 83 SSW 12 19 30.01 1016 10 16.0934 0 0
10:55 am 10:55 Partly Cloudy 64 18 59 15 83 83 SSW 12 19 30.01 1016 10 16.0934 0 0
11:15 am 11:15 Sunny 64 18 59 15 83 83 S 12 19 29.99 1016 10 16.0934 0 0
11:35 am 11:35 Mostly Cloudy 66 19 61 16 83 83 SSW 9 15 29.98 1015 10 16.0934 0 0
12:35 pm 12:35 Cloudy 68 20 61 16 78 78 SSW 14 22 29.97 1015 10 16.0934 0 0
12:55 pm 12:55 Mostly Cloudy 70 21 61 16 73 73 SW 12 19 29.97 1015 10 16.0934 0 0
1:15 pm 13:15 Partly Cloudy 70 21 61 16 73 73 SSW 10 17 29.96 1015 10 16.0934 0 0
1:35 pm 13:35 Sunny 70 21 61 16 73 73 SSW 9 15 29.94 1014 10 16.0934 0 0
1:55 pm 13:55 Sunny 72 22 59 15 65 65 SSW 8 13 29.94 1014 10 16.0934 0 0
2:15 pm 14:15 Partly Cloudy 72 22 61 16 69 69 SSW 10 17 29.92 1013 10 16.0934 0 0
2:35 pm 14:35 Sunny 73 23 61 16 65 65 SSW 12 19 29.91 1013 10 16.0934 0 0
2:55 pm 14:55 Sunny 77 25 61 16 57 57 SSW 14 22 29.88 1012 10 16.0934 0 0
3:15 pm 15:15 Sunny 79 26 61 16 54 54 SW 14 22 29.87 1012 10 16.0934 0 0
3:35 pm 15:35 Sunny 77 25 59 15 54 54 SW 9 15 29.86 1011 10 16.0934 0 0
3:55 pm 15:55 Sunny 79 26 55 13 45 45 SW 16 26 29.87 1012 10 16.0934 0 0
4:15 pm 16:15 Sunny 79 26 55 13 45 45 SW 14 22 29.86 1011 10 16.0934 0 0
4:35 pm 16:35 Sunny 79 26 55 13 45 45 SSW 12 19 29.86 1011 10 16.0934 0 0
5:15 pm 17:15 Partly Cloudy 79 26 55 13 45 45 WSW 12 19 29.88 1012 10 16.0934 0 0
5:35 pm 17:35 Partly Cloudy 79 26 55 13 45 45 WSW 7 11 29.88 1012 10 16.0934 0 0
5:55 pm 17:55 Partly Cloudy 77 25 55 13 47 47 WSW 10 17 29.89 1012 10 16.0934 0 0
6:15 pm 18:15 Sunny 77 25 55 13 47 47 WSW 8 13 29.9 1013 10 16.0934 0 0
6:35 pm 18:35 Sunny 77 25 55 13 47 47 SW 8 13 29.9 1013 10 16.0934 0 0
6:55 pm 18:55 Sunny 77 25 55 13 47 47 SW 8 13 29.91 1013 10 16.0934 0 0
7:15 pm 19:15 Sunny 75 24 55 13 50 50 WSW 10 17 29.93 1013 10 16.0934 0 0
7:35 pm 19:35 Clear 75 24 54 12 47 47 WSW 8 13 29.93 1013 10 16.0934 0 0
7:55 pm 19:55 Clear 73 23 54 12 50 50 W 7 11 29.94 1014 10 16.0934 0 0
8:15 pm 20:15 Clear 73 23 52 11 47 47 W 6 9 29.94 1014 10 16.0934 0 0
8:35 pm 20:35 Clear 73 23 52 11 47 47 WSW 6 9 29.95 1014 10 16.0934 0 0
8:55 pm 20:55 Clear 72 22 52 11 50 50 W 6 9 29.96 1015 10 16.0934 0 0
9:15 pm 21:15 Clear 72 22 50 10 47 47 W 7 11 29.97 1015 10 16.0934 0 0
9:35 pm 21:35 Clear 70 21 50 10 50 50 WNW 3 6 29.98 1015 10 16.0934 0 0
9:55 pm 21:55 Partly Cloudy 70 21 54 12 57 57 NE 7 11 30 1016 10 16.0934 0 0
10:15 pm 22:15 Partly Cloudy 68 20 55 13 64 64 NNE 8 13 30 1016 10 16.0934 0 0
10:35 pm 22:35 Clear 68 20 55 13 64 64 N 7 11 30.01 1016 10 16.0934 0 0
10:55 pm 22:55 Clear 68 20 55 13 64 64 N 5 7 30 1016 10 16.0934 0 0
11:15 pm 23:15 Clear 66 19 55 13 68 68 N 5 7 30.01 1016 10 16.0934 0 0
11:35 pm 23:35 Partly Cloudy 66 19 55 13 68 68 NNW 5 7 30.02 1017 10 16.0934 0 0
11:55 pm 23:55 Clear 64 18 55 13 73 73 NNW 3 6 30.02 1017 10 16.0934 0 0

Powered by AerisWeather